Home > Weather > Celle > Past weeks

Flag for Germany Weather for the Past 2 Weeks in Celle, Lower Saxony, Germany

Now
34 °F

Light rain. Fog.


Feels Like: 30 °F
Forecast: 30 / 35 °F
Wind: 5 mph from Northeast

Location: Celle Airport

Current Time: Feb 14, 2016 at 7:05:50 PM

Latest Report: Feb 14, 2016 at 6:20 PM


Visibility: 2 mi

Pressure: 29.33 "Hg

Humidity: 100%

Dew point: 34 °F

Location of CelleLocation

Historic Weather in Celle — Graph

°F

Celle Temperature Yesterday

Maximum temperature yesterday: 43 °F (at 1:20 PM)
Minimum temperature yesterday: 28 °F (at 6:20 AM)
Average temperature yesterday: 36 °F

High & Low Weather Summary for the Past Weeks

 TemperatureHumidityPressure
High55 °F (Feb 7, 1:20 PM)100% (Jan 31, 11:20 PM)30.24 "Hg (Jan 31, 11:20 PM)
Low28 °F (Feb 13, 6:20 AM)55% (Feb 7, 1:20 PM)28.80 "Hg (Feb 9, 8:20 PM)
Average41 °F82%29.62 "Hg
* Reported Jan 30 5:20 PM — Feb 14 5:20 PM, Celle, Weather by CustomWeather, © 2016

Note: Actual official high and low records may vary slightly from our data, if they occured in-between our weather recording intervals... More about our weather records

Advertising

Celle Weather History for the Previous 24 Hours

 ConditionsComfort  
Time TempWeatherWind HumidityBarometerVisibility
5:20 PM
Sun, Feb 14
34 °FLight rain. Fog.5 mph100%29.30 "Hg1 mi
4:20 PM34 °FLight rain. Fog.7 mph100%29.27 "Hg1 mi
3:49 PM34 °FDrizzle. Fog.7 mph100%29.24 "Hg1 mi
3:20 PM34 °FDrizzle. Fog.7 mph100%29.24 "Hg2 mi
2:20 PM34 °FDrizzle. Fog.7 mph100%29.24 "Hg3 mi
1:20 PM34 °FDrizzle. Fog.9 mph93%29.21 "Hg2 mi
12:20 PM34 °FLight snow. Fog.8 mph93%29.18 "Hg2 mi
11:20 AM34 °FLight snow. Fog.8 mph93%29.18 "Hg1 mi
10:20 AM32 °FLight snow. Ice fog.8 mph100%29.15 "Hg1 mi
9:20 AM32 °FSnow. Ice fog.8 mph100%29.15 "Hg1 mi
8:20 AM32 °FSnow. Ice fog.9 mph100%29.15 "Hg1 mi
8:01 AM32 °FSnow. Ice fog.9 mph100%29.15 "Hg1 mi
7:20 AM34 °FLight snow. Fog.9 mph93%29.15 "Hg2 mi
6:20 AM32 °FLight snow. Ice fog.12 mph100%29.12 "Hg2 mi
5:20 AM34 °FLight rain. Fog.13 mph93%29.12 "Hg3 mi
4:20 AM34 °FLight rain. Passing clouds.14 mph93%29.12 "HgN/A
3:20 AM34 °FLight rain. Passing clouds.14 mph93%29.15 "HgN/A
2:20 AM36 °FLight rain. Passing clouds.14 mph87%29.15 "HgN/A
1:20 AM36 °FLight rain. Passing clouds.15 mph87%29.15 "HgN/A
12:20 AM37 °FPassing clouds.13 mph75%29.15 "HgN/A
11:20 PM
Sat, Feb 13
37 °FPassing clouds.10 mph75%29.18 "HgN/A
10:20 PM37 °FPassing clouds.12 mph75%29.21 "HgN/A
9:20 PM37 °FPassing clouds.9 mph75%29.21 "HgN/A
8:20 PM36 °FPartly cloudy.9 mph81%29.21 "HgN/A
7:20 PM36 °FPassing clouds.9 mph81%29.24 "HgN/A
Weather by CustomWeather, © 2016

See weather overviewHow to use our weather pages